Location: Unspecified
(38.0989°N, 0.6729°W)
Time: 15:01:23
(UTC+01:00)

Tiangong 2 - Visible Passes

Search period start: 24 March 2017 00:00
Search period end: 03 April 2017 01:00
Orbit: 374 x 384 km, 42.8° (Epoch: 22 March)

Date Brightness Start Highest point End Pass type
(mag) Time Alt. Az. Time Alt. Az. Time Alt. Az.
24 Mar 3.5 04:50:49 23° NE 04:50:49 23° NE 04:52:26 10° ENE visible
24 Mar 1.1 06:23:15 10° WNW 06:26:23 84° NNE 06:29:31 10° ESE visible
25 Mar 1.6 05:24:31 46° NNW 05:25:00 52° NNE 05:28:04 10° E visible
26 Mar 4.5 05:26:11 12° E 05:26:11 12° E 05:26:30 10° E visible
26 Mar 1.1 06:58:19 20° WNW 07:00:15 60° SSW 07:03:20 10° SE visible
27 Mar 2.6 06:00:07 34° ESE 06:00:07 34° ESE 06:02:02 10° ESE visible
28 Mar 1.8 06:34:13 34° SSW 06:34:13 34° SSW 06:36:54 10° SE visible
29 Mar 3.3 07:08:30 10° SW 07:08:53 10° SW 07:09:31 10° SSW visible
01 Apr 3.7 22:10:28 10° SSW 22:10:44 12° SSW 22:10:44 12° SSW visible
02 Apr 2.8 21:09:54 10° S 21:11:59 17° SE 21:13:06 14° ESE visible
02 Apr 4.3 22:45:12 10° WSW 22:45:15 10° WSW 22:45:15 10° WSW visible
